• In Uzbekistan
  • List of Countries
  • For 7 days
  • Water Temperature
  • Satellite Maps
  • Weather Map
  • Weather Widgets
  • user-avatar
    Login

    Hourly Weather San Luis

    Today, 28 April, Friday

    Time Temperature Precipitation Wind Pressure Humidity
    00:00 +13°C° 0 mm 5 mps 699 mmHg 34%
    01:00 +13°C° 0 mm 5 mps 700 mmHg 37%
    02:00 +13°C° 0 mm 5 mps 700 mmHg 39%
    03:00 +13°C° 0 mm 5 mps 700 mmHg 43%
    04:00 +12°C° 0 mm 4 mps 700 mmHg 47%
    05:00 +12°C° 0 mm 4 mps 700 mmHg 51%
    06:00 +12°C° 0 mm 3 mps 700 mmHg 52%
    07:00 +13°C° 0 mm 3 mps 701 mmHg 53%
    08:00 +14°C° 0 mm 2 mps 701 mmHg 55%
    09:00 +17°C° 0 mm 3 mps 702 mmHg 48%
    10:00 +19°C° 0 mm 3 mps 703 mmHg 41%
    11:00 +22°C° 0 mm 3 mps 703 mmHg 34%
    12:00 +22°C° 0 mm 3 mps 703 mmHg 32%
    13:00 +24°C° 0 mm 3 mps 703 mmHg 30%
    14:00 +25°C° 0 mm 4 mps 702 mmHg 28%
    15:00 +24°C° 0 mm 3 mps 702 mmHg 31%
    16:00 +22°C° 0 mm 3 mps 702 mmHg 34%
    17:00 +21°C° 0 mm 3 mps 701 mmHg 38%
    18:00 +20°C° 0 mm 3 mps 701 mmHg 41%
    19:00 +18°C° 0 mm 3 mps 701 mmHg 45%
    20:00 +16°C° 0 mm 3 mps 701 mmHg 49%
    21:00 +16°C° 0 mm 3 mps 701 mmHg 49%
    22:00 +14°C° 0 mm 4 mps 701 mmHg 50%
    23:00 +14°C° 0 mm 4 mps 701 mmHg 50%

    Tomorrow, 29 April, Saturday

    Time Temperature Precipitation Wind Pressure Humidity
    00:00 +14°C° 0 mm 4 mps 701 mmHg 50%
    01:00 +14°C° 0 mm 5 mps 701 mmHg 51%
    02:00 +13°C° 0 mm 5 mps 701 mmHg 51%
    03:00 +13°C° 0 mm 5 mps 701 mmHg 52%
    04:00 +13°C° 0 mm 4 mps 701 mmHg 53%
    05:00 +13°C° 0 mm 4 mps 700 mmHg 54%
    06:00 +13°C° 0 mm 4 mps 701 mmHg 54%
    07:00 +13°C° 0 mm 4 mps 701 mmHg 54%
    08:00 +14°C° 0 mm 4 mps 701 mmHg 54%
    09:00 +16°C° 0 mm 5 mps 702 mmHg 47%
    10:00 +20°C° 0 mm 5 mps 703 mmHg 41%
    11:00 +22°C° 0 mm 5 mps 703 mmHg 34%
    12:00 +23°C° 0 mm 5 mps 703 mmHg 33%
    13:00 +23°C° 0 mm 5 mps 702 mmHg 31%
    14:00 +25°C° 0 mm 5 mps 702 mmHg 29%
    15:00 +23°C° 0 mm 4 mps 701 mmHg 32%
    16:00 +22°C° 0 mm 4 mps 701 mmHg 36%
    17:00 +21°C° 0 mm 4 mps 701 mmHg 39%
    18:00 +20°C° 0 mm 3 mps 701 mmHg 43%
    19:00 +18°C° 0 mm 3 mps 701 mmHg 48%
    20:00 +16°C° 0 mm 3 mps 701 mmHg 52%
    21:00 +16°C° 0 mm 3 mps 701 mmHg 53%
    22:00 +15°C° 0 mm 4 mps 702 mmHg 53%
    23:00 +15°C° 0 mm 5 mps 702 mmHg 54%

    Day after tomorrow, 30 April, Sunday

    Time Temperature Precipitation Wind Pressure Humidity
    00:00 +14°C° 0 mm 5 mps 702 mmHg 54%
    01:00 +14°C° 0 mm 5 mps 701 mmHg 54%
    02:00 +14°C° 0 mm 5 mps 701 mmHg 55%
    03:00 +14°C° 0 mm 5 mps 701 mmHg 54%
    04:00 +14°C° 0 mm 5 mps 701 mmHg 53%
    05:00 +13°C° 0 mm 5 mps 700 mmHg 52%
    06:00 +14°C° 0 mm 5 mps 701 mmHg 52%
    07:00 +14°C° 0 mm 5 mps 701 mmHg 52%
    08:00 +14°C° 0 mm 5 mps 701 mmHg 52%
    09:00 +17°C° 0 mm 5 mps 702 mmHg 47%
    10:00 +20°C° 0 mm 6 mps 702 mmHg 42%
    11:00 +22°C° 0 mm 6 mps 702 mmHg 36%
    12:00 +23°C° 0 mm 6 mps 702 mmHg 35%
    13:00 +24°C° 0 mm 6 mps 701 mmHg 33%
    14:00 +24°C° 0 mm 6 mps 701 mmHg 32%
    15:00 +23°C° 0 mm 5 mps 700 mmHg 35%
    16:00 +22°C° 0 mm 5 mps 700 mmHg 38%
    17:00 +21°C° 0 mm 5 mps 699 mmHg 41%
    18:00 +20°C° 0 mm 5 mps 699 mmHg 45%
    19:00 +17°C° 0 mm 5 mps 699 mmHg 49%
    20:00 +16°C° 0 mm 5 mps 699 mmHg 53%
    21:00 +16°C° 0 mm 5 mps 700 mmHg 50%
    22:00 +16°C° 0 mm 6 mps 700 mmHg 47%
    23:00 +16°C° 0 mm 7 mps 700 mmHg 44%

    1 May, Monday

    Time Temperature Precipitation Wind Pressure Humidity
    00:00 +16°C° 0 mm 7 mps 700 mmHg 44%
    01:00 +15°C° 0 mm 7 mps 699 mmHg 44%
    02:00 +15°C° 0 mm 7 mps 699 mmHg 44%
    03:00 +15°C° 0 mm 7 mps 699 mmHg 45%
    04:00 +15°C° 0 mm 7 mps 699 mmHg 46%
    05:00 +14°C° 0 mm 6 mps 699 mmHg 48%
    06:00 +14°C° 0 mm 6 mps 699 mmHg 49%
    07:00 +15°C° 0 mm 6 mps 699 mmHg 50%
    08:00 +15°C° 0 mm 6 mps 699 mmHg 52%
    09:00 +17°C° 0 mm 6 mps 700 mmHg 46%
    10:00 +20°C° 0 mm 6 mps 700 mmHg 41%
    11:00 +23°C° 0 mm 7 mps 700 mmHg 36%
    12:00 +23°C° 0 mm 7 mps 700 mmHg 34%
    13:00 +24°C° 0 mm 6 mps 699 mmHg 33%
    14:00 +26°C° 0 mm 6 mps 698 mmHg 32%
    15:00 +24°C° 0 mm 6 mps 698 mmHg 36%
    16:00 +23°C° 0 mm 5 mps 698 mmHg 39%
    17:00 +22°C° 0 mm 5 mps 697 mmHg 43%
    18:00 +20°C° 0 mm 5 mps 697 mmHg 48%
    19:00 +19°C° 0 mm 5 mps 698 mmHg 53%
    20:00 +16°C° 0 mm 5 mps 698 mmHg 58%
    21:00 +16°C° 0 mm 5 mps 698 mmHg 60%
    22:00 +16°C° 0 mm 6 mps 698 mmHg 62%
    23:00 +16°C° 0 mm 7 mps 698 mmHg 64%

    2 May, Tuesday

    Time Temperature Precipitation Wind Pressure Humidity
    00:00 +16°C° 0 mm 7 mps 697 mmHg 65%
    01:00 +16°C° 0 mm 7 mps 697 mmHg 67%
    02:00 +16°C° 0 mm 7 mps 697 mmHg 69%
    03:00 +15°C° 0 mm 7 mps 697 mmHg 71%
    04:00 +15°C° 0 mm 6 mps 697 mmHg 72%
    05:00 +15°C° 0 mm 6 mps 697 mmHg 74%
    06:00 +15°C° 0 mm 6 mps 697 mmHg 73%
    07:00 +15°C° 0 mm 6 mps 697 mmHg 73%
    08:00 +16°C° 0 mm 5 mps 698 mmHg 72%
    09:00 +19°C° 0 mm 6 mps 698 mmHg 64%
    10:00 +21°C° 0 mm 6 mps 699 mmHg 57%
    11:00 +23°C° 0 mm 6 mps 700 mmHg 49%
    12:00 +25°C° 0 mm 5 mps 699 mmHg 47%
    13:00 +25°C° 0 mm 5 mps 699 mmHg 45%
    14:00 +26°C° 0 mm 4 mps 699 mmHg 42%
    15:00 +25°C° 0 mm 4 mps 699 mmHg 46%
    16:00 +24°C° 0 mm 3 mps 699 mmHg 49%
    17:00 +24°C° 0 mm 3 mps 700 mmHg 52%
    18:00 +21°C° 0 mm 3 mps 700 mmHg 57%
    19:00 +20°C° 0 mm 3 mps 700 mmHg 62%
    20:00 +18°C° 0 mm 3 mps 701 mmHg 67%
    21:00 +18°C° 0 mm 2 mps 701 mmHg 69%
    22:00 +17°C° 0 mm 2 mps 701 mmHg 72%
    23:00 +17°C° 0 mm 2 mps 702 mmHg 74%

    3 May, Wednesday

    Time Temperature Precipitation Wind Pressure Humidity
    00:00 +16°C° 0 mm 2 mps 701 mmHg 76%
    01:00 +16°C° 0 mm 1 mps 701 mmHg 78%
    02:00 +16°C° 0 mm 1 mps 701 mmHg 79%
    03:00 +16°C° 0 mm 1 mps 701 mmHg 80%
    04:00 +15°C° 0 mm 1 mps 701 mmHg 80%
    05:00 +15°C° 0 mm 1 mps 701 mmHg 81%
    06:00 +16°C° 0 mm 2 mps 701 mmHg 80%
    07:00 +16°C° 0 mm 2 mps 701 mmHg 79%
    08:00 +17°C° 0 mm 2 mps 702 mmHg 77%
    09:00 +19°C° 0 mm 3 mps 702 mmHg 69%
    10:00 +21°C° 0 mm 3 mps 702 mmHg 60%
    11:00 +23°C° 0 mm 4 mps 702 mmHg 52%
    12:00 +25°C° 0 mm 4 mps 701 mmHg 48%
    13:00 +25°C° 0 mm 4 mps 701 mmHg 43%
    14:00 +26°C° 0 mm 4 mps 700 mmHg 39%
    15:00 +25°C° 0 mm 4 mps 699 mmHg 42%
    16:00 +25°C° 0 mm 3 mps 699 mmHg 45%
    17:00 +24°C° 0 mm 3 mps 698 mmHg 47%
    18:00 +22°C° 0 mm 3 mps 698 mmHg 54%
    19:00 +20°C° 0 mm 4 mps 698 mmHg 61%
    20:00 +19°C° 0 mm 4 mps 698 mmHg 68%
    21:00 +19°C° 0 mm 4 mps 698 mmHg 71%
    22:00 +19°C° 0 mm 5 mps 697 mmHg 73%
    23:00 +19°C° 0 mm 6 mps 697 mmHg 75%
    Show more